Weather History for Belfast Harbour, United Kingdom

Change the Weather History Date:

Saturday, October 26, 2013

  Actual Average Record
Temperature  
Mean Temperature 52 °F -  
Max Temperature 55 °F 48 °F 62 °F (2010)
Min Temperature 48 °F 41 °F 35 °F (2003)
Degree Days  
Heating Degree Days 14    
Growing Degree Days 2 (Base 50)    
Moisture  
Dew Point 46 °F    
Average Humidity 82    
Maximum Humidity 93    
Minimum Humidity 67    
Precipitation  
Precipitation 0.00 in - - ()
Sea Level Pressure  
Sea Level Pressure 29.31 in    
Wind  
Wind Speed 10 mph ()    
Max Wind Speed 22 mph    
Max Gust Speed 28 mph    
Visibility 5.9 miles    
Events Rain    
Averages and records for this station are not official NWS values.
T = Trace of Precipitation, MM = Missing Value Source: Averaged Metar Reports

Daily Weather History Graph

Daily Weather History Graph

Search for Another Location

Airport:

Trip Planner

Search our weather history database for the weather conditions in past years. The results will help you decide how hot, cold, wet, or windy it might be!

Date:

Astronomy

Oct. 26, 2013 Rise Set
Actual Time 8:14 AM IST 5:59 PM IST
Civil Twilight 7:36 AM IST 6:37 PM IST
Nautical Twilight 6:54 AM IST 7:19 PM IST
Astronomical Twilight 6:13 AM IST 8:00 PM IST
Moon 11:55 PM IST (10/26) 2:32 PM IST (10/26)
Length of Visible Light 11h 00m
Length of Day
9h 45m
Waning Gibbous, 55% of the Moon is Illuminated
Oct 26
Waning Gibbous
Oct 27
Last Quarter
Nov 3
New
Nov 10
First Quarter
Nov 17
Full

Hourly Weather History & Observations

Time (IST) Temp. Dew Point Humidity Pressure Visibility Wind Dir Wind Speed Gust Speed Precip Events Conditions
6:20 AM 51.8 °F 46.4 °F 82% 29.44 in 6.2 mi South 6.9 mph - N/A   Mostly Cloudy
6:50 AM 50.0 °F 46.4 °F 87% 29.44 in 6.2 mi SSW 8.1 mph - N/A   Mostly Cloudy
7:20 AM 48.2 °F 44.6 °F 87% 29.44 in 6.2 mi SSE 6.9 mph - N/A   Mostly Cloudy
7:50 AM 48.2 °F 44.6 °F 87% 29.44 in 6.2 mi South 8.1 mph - N/A   Mostly Cloudy
8:20 AM 48.2 °F 46.4 °F 93% 29.44 in 6.2 mi SW 5.8 mph - N/A   Mostly Cloudy
8:50 AM 50.0 °F 46.4 °F 87% 29.44 in 6.2 mi South 4.6 mph - N/A   Scattered Clouds
9:20 AM 50.0 °F 44.6 °F 82% 29.42 in 6.2 mi South 6.9 mph - N/A   Scattered Clouds
9:50 AM 51.8 °F 44.6 °F 76% 29.42 in 6.2 mi SSE 10.4 mph - N/A   Scattered Clouds
10:20 AM 51.8 °F 44.6 °F 76% 29.42 in 6.2 mi SSE 11.5 mph - N/A   Mostly Cloudy
10:50 AM 53.6 °F 46.4 °F 77% 29.39 in 6.2 mi SSE 11.5 mph - N/A   Mostly Cloudy
11:20 AM 53.6 °F 46.4 °F 77% 29.39 in 6.2 mi South 18.4 mph - N/A   Mostly Cloudy
11:50 AM 55.4 °F 44.6 °F 67% 29.36 in 6.2 mi South 17.3 mph - N/A   Mostly Cloudy
12:20 PM 55.4 °F 44.6 °F 67% 29.33 in 6.2 mi South 16.1 mph 27.6 mph N/A   Mostly Cloudy
12:50 PM 55.4 °F 44.6 °F 67% 29.30 in 6.2 mi South 17.3 mph - N/A   Mostly Cloudy
1:20 PM 55.4 °F 46.4 °F 72% 29.27 in 6.2 mi South 19.6 mph - N/A   Scattered Clouds
1:50 PM 53.6 °F 50.0 °F 88% 29.27 in 6.2 mi SSE 17.3 mph - N/A Rain Light Rain
2:20 PM 53.6 °F 50.0 °F 88% 29.24 in 3.1 mi South 18.4 mph - N/A Rain Light Rain
2:50 PM 53.6 °F 50.0 °F 88% 29.21 in 4.3 mi South 20.7 mph - N/A Rain Light Rain
3:20 PM 53.6 °F 50.0 °F 88% 29.21 in 3.7 mi South 21.9 mph - N/A Rain Rain
3:50 PM 51.8 °F 48.2 °F 88% 29.21 in 6.2 mi SSW 15.0 mph - N/A Rain Light Rain
4:20 PM 51.8 °F 46.4 °F 82% 29.21 in 6.2 mi SW 15.0 mph - N/A Rain Light Rain
4:50 PM 51.8 °F 46.4 °F 82% 29.18 in 6.2 mi SW 13.8 mph - N/A   Partly Cloudy
5:20 PM 51.8 °F 46.4 °F 82% 29.21 in 6.2 mi SW 12.7 mph - N/A   Partly Cloudy
5:50 PM 50.0 °F 46.4 °F 87% 29.21 in 6.2 mi SW 11.5 mph - N/A   Partly Cloudy
6:20 PM 50.0 °F 46.4 °F 87% 29.21 in 6.2 mi SSW 10.4 mph - N/A   Partly Cloudy
6:50 PM 50.0 °F 44.6 °F 82% 29.24 in 6.2 mi South 8.1 mph - N/A   Partly Cloudy
7:20 PM 48.2 °F 44.6 °F 87% 29.24 in 6.2 mi South 9.2 mph - N/A   Partly Cloudy
7:50 PM 48.2 °F 44.6 °F 87% 29.24 in 6.2 mi Variable 2.3 mph - N/A   Partly Cloudy
8:20 PM 48.2 °F 44.6 °F 87% 29.21 in - South 8.1 mph - N/A   Clear
8:50 PM 48.2 °F 44.6 °F 87% 29.21 in - SSW 9.2 mph - N/A   Clear